TimeMST,TemperatureF,Dew PointF,Humidity,Sea Level PressureIn,VisibilityMPH,Wind Direction,Wind SpeedMPH,Gust SpeedMPH,PrecipitationIn,Events,Conditions,WindDirDegrees,DateUTC
12:53 AM,37.0,21.0,52,29.97,10.0,SE,10.4,-,N/A,,Mostly Cloudy,140,2011-11-21 07:53:00
1:53 AM,37.0,21.0,52,29.95,10.0,SSE,6.9,-,N/A,,Overcast,150,2011-11-21 08:53:00
2:53 AM,37.0,21.0,52,29.97,10.0,ESE,9.2,-,N/A,,Clear,120,2011-11-21 09:53:00
3:53 AM,39.0,21.0,49,29.97,10.0,ESE,10.4,-,N/A,,Overcast,110,2011-11-21 10:53:00
4:53 AM,39.9,21.0,47,29.97,10.0,Calm,Calm,-,N/A,,Overcast,0,2011-11-21 11:53:00
5:53 AM,37.9,21.9,53,30.00,10.0,WSW,6.9,-,N/A,,Overcast,240,2011-11-21 12:53:00
6:53 AM,37.9,25.0,60,30.02,10.0,SE,4.6,-,0.00,,Overcast,140,2011-11-21 13:53:00
7:53 AM,41.0,26.1,55,30.03,10.0,ESE,8.1,-,N/A,,Mostly Cloudy,110,2011-11-21 14:53:00
8:53 AM,42.1,28.9,60,30.04,10.0,East,9.2,-,N/A,,Mostly Cloudy,100,2011-11-21 15:53:00
9:53 AM,44.1,30.0,58,30.03,10.0,ESE,6.9,-,N/A,,Overcast,110,2011-11-21 16:53:00
10:53 AM,48.0,34.0,58,30.01,10.0,SSE,6.9,-,0.00,,Partly Cloudy,150,2011-11-21 17:53:00
12:53 PM,50.0,30.0,46,29.96,10.0,Variable,3.5,-,N/A,,Clear,0,2011-11-21 19:53:00
1:53 PM,50.0,28.0,43,29.94,10.0,Calm,Calm,-,N/A,,Clear,0,2011-11-21 20:53:00
2:53 PM,51.1,28.0,41,29.95,10.0,NNW,9.2,-,N/A,,Mostly Cloudy,340,2011-11-21 21:53:00
3:53 PM,46.0,30.9,56,29.99,10.0,WNW,13.8,-,0.00,,Overcast,290,2011-11-21 22:53:00
4:53 PM,45.0,32.0,60,30.01,10.0,WNW,6.9,-,N/A,,Overcast,300,2011-11-21 23:53:00
5:53 PM,44.1,30.9,60,30.05,10.0,South,3.5,-,N/A,,Mostly Cloudy,190,2011-11-22 00:53:00
6:53 PM,41.0,30.9,67,30.09,10.0,South,8.1,-,N/A,,Overcast,170,2011-11-22 01:53:00
7:53 PM,39.9,30.9,70,30.11,10.0,SE,9.2,-,N/A,,Mostly Cloudy,140,2011-11-22 02:53:00
8:53 PM,37.0,30.0,76,30.13,10.0,SE,6.9,-,N/A,,Scattered Clouds,130,2011-11-22 03:53:00
9:53 PM,33.1,27.0,78,30.16,10.0,ESE,6.9,-,N/A,,Scattered Clouds,110,2011-11-22 04:53:00
10:53 PM,35.1,28.0,76,30.17,10.0,SE,6.9,-,N/A,,Overcast,130,2011-11-22 05:53:00